Tracking 29892 objects as of 21-Nov-2024
HD Live streaming from Space Station
objects crossing your sky now

STARLINK-32382

Track STARLINK-32382 now!
10-day predictions
STARLINK-32382 is classified as:


NORAD ID: 61258
Int'l Code: 2024-175R
Perigee: 453.7 km
Apogee: 454.9 km
Inclination: 53.2 °
Period: 93.5 minutes
Semi major axis: 6825 km
RCS: Unknown
Launch date: September 25, 2024
Source: United States (US)
Launch site: AIR FORCE WESTERN TEST RANGE (AFWTR)
Your satellite tracking list
Your tracking list is empty




NASA's NSSDC Master Catalog

Two Line Element Set (TLE):
1 61258U 24175R   24325.36736388 -.00001413  00000-0 -25347-4 0  9997
2 61258  53.1599 242.1279 0000838  82.9192 277.1908 15.39642601  8765
Source of the keplerian elements: AFSPC